TOURFACTS.DK  
Stats and Facts from Tour de France.

Tour de France 2019 starts in 321 days
  Riders   Stages   Teams   Summits   Yearly  


 
Search by year

After 2018 - Stage 21:
 15000 starters.
  5165 different riders.
  638 teams.
  2253 stages.
  456 restdays.
  442940.60 km.
  5684 abandonnees.


Top 3
GC
Geraint Thomas83:17:13
Tom Dumoulin83:19:04
Christopher Froome83:19:37
Climb
Julian Alaphilippe170 pt.
Warren Barguil91 pt.
Rafal Majka76 pt.
Sprint
Peter Sagan477 pt.
Alexander Kristoff246 pt.
Arnaud Démare203 pt.
Youth
Pierre-Roger Latou..83:39:26
Egan Bernal83:45:05
Guillaume Martin84:01:31
Facts from Tour de France 2015
  |   Stages.  |   Stage winners.  |   Days in yellow  |   Average speed.  |   Route.  |   Teams.  |   All riders.  |   Rookies.  |  

  |   Withdrawls.  |   GC.  |   Polka  |   Green  |   White  |   Summits. (In tour)  |   Miscellaneous.  |  

Stage 16 on 20 - 07 - 2015
         Owning:    Christopher Froome      Christopher Froome      Peter Sagan      Nairo Quintana  

Pick a stage:  1 2 3 4 5 6 7 8 9 10 11 12 13 14 15 16 17 18 19 20 21
  Bourg-de-PéageGap | Dist: 201.00 km.
Cat: 2Col de CabreBELSerge Pauwels5 points 
Cat: 2Col de ManseESPRubén Plaza5 points 

Average speed for all riders in stage:  41,091 km./hr.
    Place:Name:Team:Time:Km/h:
1
ESPRubén PlazaITALampre-Merida04:30:10  +  00:00:00=44,639 
2
SVKPeter SaganRUSTinkoff Saxo04:30:40  +  00:00:30=44,557 
3
COLJarlinson Pantano GomezCHEIAM Cycling04:30:46  +  00:00:36=44,540 
44 GERSimon GeschkeDEUTeam Giant Alpecin04:30:50  +  00:00:40=44,529 
55 LUXBob JungelsUSATrek Factory Racing04:30:50  +  00:00:40=44,529 
66 FRAChristophe RiblonFRAAg2r La Mondiale04:30:50  +  00:00:40=44,529 
77 ERIDaniel TeklehaimanotZAFMTN - Qhubeka P/B Samsung04:31:03  +  00:00:53=44,494 
88 BELThomas De GendtBELLotto Soudal04:31:32  +  00:01:22=44,414 
99 ESPLuis Angel MateFRACofidis – Solutions Crédits04:31:32  +  00:01:22=44,414 
1010 FRAThomas VoecklerFRATeam Europcar04:31:32  +  00:01:22=44,414 
1111 FRAPierrick FédrigoFRABretagne - Séché Environnement04:32:04  +  00:01:54=44,327 
1212 UKRAndriy GrivkoKAZAstana Pro Team04:32:04  +  00:01:54=44,327 
1313 BELSerge PauwelsZAFMTN - Qhubeka P/B Samsung04:32:04  +  00:01:54=44,327 
1414 POLMichal GolasBELEtixx - Quick Step04:32:05  +  00:01:55=44,325 
1515 ESPImanol ErvitiESPMovistar Team04:32:29  +  00:02:19=44,260 
1616 AUTMarco HallerRUSTeam Katusha04:32:50  +  00:02:40=44,203 
1717 ESPDaniel NavarroFRACofidis – Solutions Crédits04:33:37  +  00:03:27=44,076 
1818 AUSAdam HansenBELLotto Soudal04:34:17  +  00:04:07=43,969 
1919 NOREdvald Boasson HagenZAFMTN - Qhubeka P/B Samsung04:34:24  +  00:04:14=43,950 
2020 PORNelson OliveiraITALampre-Merida04:34:24  +  00:04:14=43,950 
2121 FRAPierre-Luc PérichonFRABretagne - Séché Environnement04:36:23  +  00:06:13=43,635 
2222 ESPMarkel IrizarUSATrek Factory Racing04:37:19  +  00:07:09=43,488 
2323 ITAMatteo TrentinBELEtixx - Quick Step04:38:54  +  00:08:44=43,241 
2424 ITAVincenzo NibaliKAZAstana Pro Team04:47:54  +  00:17:44=41,890 
2525 ESPAlberto ContadorRUSTinkoff Saxo04:48:22  +  00:18:12=41,822 
2626 NEDBauke MollemaUSATrek Factory Racing04:48:22  +  00:18:12=41,822 
2727 FRARomain BardetFRAAg2r La Mondiale04:48:22  +  00:18:12=41,822 
2828 KENChristopher FroomeGBRSky Procycling04:48:22  +  00:18:12=41,822 
2929 ESPAlejandro ValverdeESPMovistar Team04:48:22  +  00:18:12=41,822 
3030 USATejay Van GarderenUSABMC Racing Team04:48:22  +  00:18:12=41,822 
3131 NEDRobert GesinkNLDTeam Lotto NL - Jumbo04:48:22  +  00:18:12=41,822 
3232 COLNairo QuintanaESPMovistar Team04:48:22  +  00:18:12=41,822 
3333 FRAWarren BarguilDEUTeam Giant Alpecin04:48:22  +  00:18:12=41,822 
3434 WALGeraint ThomasGBRSky Procycling04:49:00  +  00:18:50=41,730 
3535 NEDWout PoelsGBRSky Procycling04:49:00  +  00:18:50=41,730 
3636 USAAndrew TalanskyUSATeam Cannondale - Garmin04:49:19  +  00:19:09=41,684 
3737 ITADamiano CarusoUSABMC Racing Team04:49:19  +  00:19:09=41,684 
3838 FRAPierre RollandFRATeam Europcar04:49:19  +  00:19:09=41,684 
3939 ESPSamuel SanchezUSABMC Racing Team04:49:19  +  00:19:09=41,684 
4040 CZERoman KreuzigerRUSTinkoff Saxo04:49:19  +  00:19:09=41,684 
4141 SUIMathias FrankCHEIAM Cycling04:49:19  +  00:19:09=41,684 
4242 ITAMichele ScarponiKAZAstana Pro Team04:49:19  +  00:19:09=41,684 
4343 ESPGorka Izaguirre InsaustiESPMovistar Team04:49:19  +  00:19:09=41,684 
4444 BELJan BakelantsFRAAg2r La Mondiale04:49:19  +  00:19:09=41,684 
4545 FRAAlexis VuillermozFRAAg2r La Mondiale04:49:19  +  00:19:09=41,684 
4646 FRAThibaut PinotFRAFDJ04:49:19  +  00:19:09=41,684 
4747 CZEJan BártaDEUBora-Argon 1804:51:15  +  00:21:05=41,408 
4848 FRAMickaël CherelFRAAg2r La Mondiale04:51:15  +  00:21:05=41,408 
4949 FRACyril GautierFRATeam Europcar04:51:50  +  00:21:40=41,325 
5050 NEDLieuwe WestraKAZAstana Pro Team04:51:50  +  00:21:40=41,325 
5151 FRARomain SicardFRATeam Europcar04:51:50  +  00:21:40=41,325 
5252 HRVKristijan DurasekITALampre-Merida04:51:50  +  00:21:40=41,325 
5353 SUIJakob FuglsangKAZAstana Pro Team04:51:50  +  00:21:40=41,325 
5454 DENLars BakBELLotto Soudal04:52:01  +  00:21:51=41,299 
5555 FRATony GallopinBELLotto Soudal04:52:01  +  00:21:51=41,299 
5656 FRAAngelo TulikFRATeam Europcar04:54:50  +  00:24:40=40,904 
5757 SUIMichael SchärUSABMC Racing Team04:55:08  +  00:24:58=40,863 
5858 GERPaul MartensNLDTeam Lotto NL - Jumbo04:55:08  +  00:24:58=40,863 
5959 SUIMarcel WyssCHEIAM Cycling04:55:08  +  00:24:58=40,863 
6060 NEDSteven KruijswijkNLDTeam Lotto NL - Jumbo04:55:08  +  00:24:58=40,863 
6161 NEDStef ClementCHEIAM Cycling04:55:08  +  00:24:58=40,863 
6262 SUIDanilo WyssUSABMC Racing Team04:55:08  +  00:24:58=40,863 
6363 NEDRoy CurversDEUTeam Giant Alpecin04:55:08  +  00:24:58=40,863 
6464 CANRyder HesjedalUSATeam Cannondale - Garmin04:55:08  +  00:24:58=40,863 
6565 SLOKristjan KorenUSATeam Cannondale - Garmin04:55:08  +  00:24:58=40,863 
6666 SUIGregory RastUSATrek Factory Racing04:55:08  +  00:24:58=40,863 
6767 FRAMatthieu LadagnousFRAFDJ04:55:08  +  00:24:58=40,863 
6868 FRAFlorian VachonFRABretagne - Séché Environnement04:55:08  +  00:24:58=40,863 
6969 NEDKoen De KortDEUTeam Giant Alpecin04:55:08  +  00:24:58=40,863 
7070 ENGAdam YatesAUSOrica - GreenEDGE04:55:08  +  00:24:58=40,863 
7171 NEDBram TankinkNLDTeam Lotto NL - Jumbo04:55:08  +  00:24:58=40,863 
7272 SUIReto HollensteinCHEIAM Cycling04:55:08  +  00:24:58=40,863 
7373 FRAArmindo FonsecaFRABretagne - Séché Environnement04:55:08  +  00:24:58=40,863 
7474 FRAAnthony DelaplaceFRABretagne - Séché Environnement04:55:08  +  00:24:58=40,863 
7575 FRAFrédéric BrunFRABretagne - Séché Environnement04:55:08  +  00:24:58=40,863 
7676 FRAPerrig QuemeneurFRATeam Europcar04:55:08  +  00:24:58=40,863 
7777 DENMichael ValgrenRUSTinkoff Saxo04:55:08  +  00:24:58=40,863 
7878 FRABrice FeilluFRABretagne - Séché Environnement04:55:08  +  00:24:58=40,863 
7979 NEDDylan Van BaarleUSATeam Cannondale - Garmin04:55:08  +  00:24:58=40,863 
8080 AUTGeorg PreidlerDEUTeam Giant Alpecin04:55:08  +  00:24:58=40,863 
8181 ESPHaimar ZubeldiaUSATrek Factory Racing04:55:08  +  00:24:58=40,863 
8282 ITAMatteo TosattoRUSTinkoff Saxo04:55:08  +  00:24:58=40,863 
8383 AUSRichie PorteGBRSky Procycling04:55:08  +  00:24:58=40,863 
8484 ESPJosé Herrada LópezESPMovistar Team04:55:08  +  00:24:58=40,863 
8585 AUSMichael RogersRUSTinkoff Saxo04:55:08  +  00:24:58=40,863 
8686 AUSNathan HaasUSATeam Cannondale - Garmin04:55:08  +  00:24:58=40,863 
8787 ESPJonathan CastroviejoESPMovistar Team04:55:08  +  00:24:58=40,863 
8888 FRAFlorian SénéchalFRACofidis – Solutions Crédits04:55:08  +  00:24:58=40,863 
8989 ENGStephen CummingsZAFMTN - Qhubeka P/B Samsung04:55:08  +  00:24:58=40,863 
9090 KAZDmitriy GruzdevKAZAstana Pro Team04:55:08  +  00:24:58=40,863 
9191 COLWinner AnaconaESPMovistar Team04:55:08  +  00:24:58=40,863 
9292 COLJulián ArredondoUSATrek Factory Racing04:55:08  +  00:24:58=40,863 
9393 FRANicolas RocheGBRSky Procycling04:55:08  +  00:24:58=40,863 
9494 CZELeopold KönigGBRSky Procycling04:55:08  +  00:24:58=40,863 
9595 ITAManuel QuinziatoUSABMC Racing Team04:56:31  +  00:26:21=40,672 
9696 FRABryan CoquardFRATeam Europcar04:56:31  +  00:26:21=40,672 
9797 FRAArnaud DémareFRAFDJ05:00:46  +  00:30:36=40,098 
9898 FRASylvain ChavanelCHEIAM Cycling05:00:46  +  00:30:36=40,098 
9999 ITAJacopo GuarnieriRUSTeam Katusha05:00:46  +  00:30:36=40,098 
100100 GERMarcel SiebergBELLotto Soudal05:00:46  +  00:30:36=40,098 
101101 BELJens DebusschereBELLotto Soudal05:00:46  +  00:30:36=40,098 
102102 FRAJérémy RoyFRAFDJ05:00:46  +  00:30:36=40,098 
103103 GERAndré GreipelBELLotto Soudal05:00:46  +  00:30:36=40,098 
104104 FRABryan NauleauFRATeam Europcar05:00:46  +  00:30:36=40,098 
105105 SUIMartin ElmigerCHEIAM Cycling05:00:46  +  00:30:36=40,098 
106106 AUSRohan DennisUSABMC Racing Team05:00:46  +  00:30:36=40,098 
107107 ESPJoaquim RodriguezRUSTeam Katusha05:00:46  +  00:30:36=40,098 
108108 GERJohn DegenkolbDEUTeam Giant Alpecin05:00:46  +  00:30:36=40,098 
109109 PORJosé João PimentaDEUBora-Argon 1805:00:46  +  00:30:36=40,098 
110110 ERIMerhawi GhebremedhinZAFMTN - Qhubeka P/B Samsung05:00:46  +  00:30:36=40,098 
111111 FRAYohann GèneFRATeam Europcar05:00:46  +  00:30:36=40,098 
112112 NORAlexander KristoffRUSTeam Katusha05:00:46  +  00:30:36=40,098 
113113 FRAArnaud GérardFRABretagne - Séché Environnement05:00:46  +  00:30:36=40,098 
114114 FRADamien GaudinFRAAg2r La Mondiale05:00:46  +  00:30:36=40,098 
115115 URSTanel KangertKAZAstana Pro Team05:00:46  +  00:30:36=40,098 
116116 NEDJos Van EmdenNLDTeam Lotto NL - Jumbo05:00:46  +  00:30:36=40,098 
117117 AUSMark RenshawBELEtixx - Quick Step05:00:46  +  00:30:36=40,098 
118118 ENGDaniel MartinUSATeam Cannondale - Garmin05:00:46  +  00:30:36=40,098 
119119 BELKenneth VanbilsenFRACofidis – Solutions Crédits05:00:46  +  00:30:36=40,098 
120120 BELSep VanmarckeNLDTeam Lotto NL - Jumbo05:00:46  +  00:30:36=40,098 
121121 NEDTom LeezerNLDTeam Lotto NL - Jumbo05:00:46  +  00:30:36=40,098 
122122 NEDWilco KeldermanNLDTeam Lotto NL - Jumbo05:00:46  +  00:30:36=40,098 
123123 ESPRafael Valls FerriITALampre-Merida05:00:46  +  00:30:36=40,098 
124124 FRAJulien SimonFRACofidis – Solutions Crédits05:00:46  +  00:30:36=40,098 
125125 ITADaniel OssUSABMC Racing Team05:00:46  +  00:30:36=40,098 
126126 BELJulien VermoteBELEtixx - Quick Step05:00:46  +  00:30:36=40,098 
127127 CZEZdenek StybarBELEtixx - Quick Step05:00:46  +  00:30:36=40,098 
128128 RSAReinardt Janse Van RensburgZAFMTN - Qhubeka P/B Samsung05:00:46  +  00:30:36=40,098 
129129 COLRigoberto UránBELEtixx - Quick Step05:00:46  +  00:30:36=40,098 
130130 FRANicolas EdetFRACofidis – Solutions Crédits05:00:46  +  00:30:36=40,098 
131131 LUXLaurent DidierUSATrek Factory Racing05:00:46  +  00:30:36=40,098 
132132 FRABenoit VaugrenardFRAFDJ05:00:46  +  00:30:36=40,098 
133133 FRASébastien ChavanelFRAFDJ05:00:46  +  00:30:36=40,098 
134134 ITAFilippo PozzatoITALampre-Merida05:00:46  +  00:30:36=40,098 
135135 FRAAlexandre GeniezFRAFDJ05:00:46  +  00:30:36=40,098 
136136 URSRamunas NavardauskasUSATeam Cannondale - Garmin05:00:46  +  00:30:36=40,098 
137137 ITAMatteo BonoITALampre-Merida05:00:46  +  00:30:36=40,098 
138138 PORTiago PintoRUSTeam Katusha05:00:46  +  00:30:36=40,098 
139139 FRAGeoffrey SoupeFRACofidis – Solutions Crédits05:00:46  +  00:30:36=40,098 
140140 COLJosé SerpaITALampre-Merida05:00:46  +  00:30:36=40,098 
141141 ESPAlberto LosadaRUSTeam Katusha05:00:46  +  00:30:36=40,098 
142142 ITAGiampaolo CarusoRUSTeam Katusha05:00:46  +  00:30:36=40,098 
143143 BELStijn DevolderUSATrek Factory Racing05:00:46  +  00:30:36=40,098 
144144 FRAJean-Christophe PeraudFRAAg2r La Mondiale05:00:46  +  00:30:36=40,098 
145145 USATyler FarrarZAFMTN - Qhubeka P/B Samsung05:00:46  +  00:30:36=40,098 
146146 AUTMatthias BrändleCHEIAM Cycling05:00:46  +  00:30:36=40,098 
147147 IOMMark CavendishBELEtixx - Quick Step05:00:46  +  00:30:36=40,098 
148148 AUSMichael MatthewsAUSOrica - GreenEDGE05:00:46  +  00:30:36=40,098 
149149 POLRafal MajkaRUSTinkoff Saxo05:00:46  +  00:30:36=40,098 
150150 GEREmanuel BuchmannDEUBora-Argon 1805:00:46  +  00:30:36=40,098 
151151 ITADavide CimolaiITALampre-Merida05:00:46  +  00:30:36=40,098 
152152 RSAJacques Janse Van RensburgZAFMTN - Qhubeka P/B Samsung05:00:46  +  00:30:36=40,098 
153153 RSALouis MeintjesZAFMTN - Qhubeka P/B Samsung05:00:46  +  00:30:36=40,098 
154154 FRAJérôme CoppelCHEIAM Cycling05:00:46  +  00:30:36=40,098 
155155 POLMichal KwiatkowskiBELEtixx - Quick Step05:00:46  +  00:30:36=40,098 
156156 GERPaul VossDEUBora-Argon 1805:00:46  +  00:30:36=40,098 
157157 ENGIan StannardGBRSky Procycling05:00:46  +  00:30:36=40,098 
158158 NEDPieter WeeningAUSOrica - GreenEDGE05:00:46  +  00:30:36=40,098 
159159 FRAChristophe LaporteFRACofidis – Solutions Crédits05:00:46  +  00:30:36=40,098 
160160 ENGSimon YatesAUSOrica - GreenEDGE05:00:46  +  00:30:36=40,098 
161161 BELTim WellensBELLotto Soudal05:00:46  +  00:30:36=40,098 
162162 CANSvein TuftAUSOrica - GreenEDGE05:00:46  +  00:30:36=40,098 
163163 POLBartosz HuzarskiDEUBora-Argon 1805:00:46  +  00:30:36=40,098 
164164 WALLuke RoweGBRSky Procycling05:00:46  +  00:30:36=40,098 
165165 AUSLuke DurbridgeAUSOrica - GreenEDGE05:00:46  +  00:30:36=40,098 
166166 BELSam BennettDEUBora-Argon 1805:00:46  +  00:30:36=40,098 
167167 NEDLaurens ten DamNLDTeam Lotto NL - Jumbo05:00:46  +  00:30:36=40,098 
168168 NEDAlbert TimmerDEUTeam Giant Alpecin05:00:46  +  00:30:36=40,098 
169169 ITAAdriano MaloriESPMovistar Team05:00:46  +  00:30:36=40,098 

Withdrawls: 2
 
Rider
Team
Reason
32  IOMPeter KennaughGBRSky ProcyclingDid not finish
68  BELGreg Van AvermaetUSABMC Racing TeamDid not finish
Todays birthdays.

1878  Louis Gardent
1904  Ludwig Geyer
1911  Paul Egli
1916  Piet Van Nek
1926  Bruno Garonzi
1933  Roger Baens
1938  Roland Zöffel
1945  Marcello Osler
1946  Antonio Menendez
1962  Niki Rüttimann
1969  Serge Baguet
1970  Cédric Vasseur
1971  Cristian Salvato
1972  Sven Teutenberg
1988  Frédéric Brun